User: anonymous   Login
Location: Unspecified
(0.0000°N, 0.0000°E)
Time: 04:02:30
(UTC+00:00)
Language:

Starlink (trailer) - Orbit

View from above orbital plane
View from above orbital plane
View from above satellite
View from above satellite

Ground track
Ground track

The orbit data is extracted from the following two-line orbital elements,

1 44284U 19029BB  19175.26651438 +.00000932 +00000-0 +84836-4 0  9998
2 44284 053.0037 032.0098 0002669 098.4996 261.6295 15.04761854004064
Epoch (UTC): 24 June 2019 06:23:46
Eccentricity: 0.0002669
inclination: 53.0037°
perigee height: 550 km
apogee height: 554 km
right ascension of ascending node: 32.0098°
argument of perigee: 98.4996°
revolutions per day: 15.04761854
mean anomaly at epoch: 261.6295°
orbit number at epoch: 406

The dashed part of the orbit path shows where the satellite is in the earth's shadow,  

DLR